Regional Weather Roundup
Issued by NWS Albany, NY

Home | Current Version | Previous Version | Graphics & Text | Print | Product List | Glossary Off
Versions: 1 2 3 4 5 6 7 8 9 10 11 12 13 14 15 16 17 18 19 20 21 22 23 24 25 26 27 28 29 30 31 32 33 34 35 36 37 38 39 40 41 42 43 44 45 46 47 48 49 50

786
ASUS41 KALY 182310
RWRALY

NEW YORK STATE HOURLY WEATHER ROUNDUP
NATIONAL WEATHER SERVICE ALBANY NY
700 PM EDT FRI AUG 18 2017

NOTE: "FAIR" INDICATES FEW OR NO CLOUDS BELOW 12,000 FEET WITH NO
SIGNIFICANT WEATHER AND/OR NO OBSTRUCTIONS TO VISIBILITY.

NYZ032-033-038>043-046>054-057>066-NYZ062>081-082-084-190000-
EAST


CITY           SKY/WX    TMP DP  RH WIND       PRES   REMARKS
ALBANY         MOCLDY    77  73  87 S7        29.78R
GLENS FALLS    MOCLDY    76  71  85 S9        29.76R
POUGHKEEPSIE   LGT RAIN  76  69  79 CALM      29.77F
NEWBURGH       LGT RAIN  72  72 100 W14       29.83R FOG
MONTGOMERY     RAIN      72  70  93 CALM      29.79F
WHITE PLAINS   LGT RAIN  77  75  93 S8        29.80F FOG
ISLIP          CLOUDY    78  77  96 SW13G23   29.81S FOG
NEW YORK CITY  CLOUDY    80  77  90 VRB6      29.79R THUNDER
CENTRAL PARK   LGT RAIN  79  76  90 CALM      29.82S
$$

NYZ005>009-017-018-044>046-055-056-190000-
CENTRAL


CITY           SKY/WX    TMP DP  RH WIND       PRES   REMARKS
FULTON         SUNNY     80  62  54 W10       29.72R
SYRACUSE       LGT RAIN  80  66  62 NW13      29.70R
ROME           PTCLDY    83  70  64 S9        29.70S
ELMIRA         SUNNY     82  69  64 W5        29.75R
BINGHAMTON     CLOUDY    76  70  82 SW8       29.80R
MONTICELLO     CLOUDY    74  72  93 SE8       29.84S
$$

NYZ026>034-041>043-087-190000-
NORTH


CITY           SKY/WX    TMP DP  RH WIND       PRES   REMARKS
WATERTOWN      PTSUNNY   78  67  68 SW10      29.70R
FORT DRUM      NOT AVBL
OGDENSBURG     FAIR      82  64  54 SW8G18    29.66S
MASSENA        CLEAR     81  65  58 SW7       29.68R
SARANAC LAKE   CLEAR     78  66  66 CALM      29.75R
PLATTSBURGH    MOCLDY    77  71  82 SE9       29.69R
$$

NYZ001>004-010>016-019>021-085-190000-
WEST


CITY           SKY/WX    TMP DP  RH WIND       PRES   REMARKS
NIAGARA FALLS  CLOUDY    77  64  64 W14G21    29.74S
BUFFALO        PTSUNNY   75  65  70 SW17G23   29.76R
DUNKIRK        CLOUDY    74  67  78 SW15G23   29.79R
JAMESTOWN      PTSUNNY   72  61  68 W16G25    29.85R
WELLSVILLE     PTSUNNY   77  63  61 NW13      29.85R
ROCHESTER      PTSUNNY   78  62  57 W18       29.75R
PENN YAN       MOSUNNY   80  63  55 NW8       29.76R
$$

             KEY
       WCI = WIND CHILL INDEX
       VSB = VISIBILITY
       HX  = HEAT INDEX
$$




USA.gov is the U.S. government's official web portal to all federal, state and local government web resources and services.